Regional Weather Roundup
Issued by NWS Kansas City/Pleasant Hill, MO

Home | Current Version | Previous Version | Text Only | Print | Product List | Glossary On
Versions: 1 2 3 4 5 6 7 8 9 10 11 12 13 14 15 16 17 18 19 20 21 22 23 24 25 26 27 28 29 30 31 32 33 34 35 36 37 38 39 40 41 42 43 44 45 46 47 48 49 50
000
ASUS43 KEAX 241511
RWREAX

WEATHER ROUNDUP FOR EASTERN KANSAS AND NORTHWEST MISSOURI
NATIONAL WEATHER SERVICE KANSAS CITY/PLEASANT HILL MO
1000 AM CDT THU JUL 24 2014

KSZ040-057-103>105-MOZ028-029-037-043-241600-
...KANSAS CITY METROPOLITAN AREA...

CITY           SKY/WX    TMP DP  RH WIND       PRES   REMARKS
K.C. INTL      MOSUNNY   75  59  57 SE14      30.16S
K.C. DOWNTOWN  SUNNY     77  59  53 SE10      30.15S
LEES SUMMIT    SUNNY     75  59  57 VRB7      30.17R
OLATHE - IXD   SUNNY     75  59  57 SE13      30.16S
OLATHE - OJC   SUNNY     73  59  61 SE13G22   30.16R
LAWRENCE       SUNNY     77  61  57 SE12      30.15S

$$

MOZ001>008-011>017-020>025-030>033-038>040-044>046-053-054-241600-
...NORTHERN AND CENTRAL MISSOURI...

CITY           SKY/WX    TMP DP  RH WIND       PRES   REMARKS
ST. JOSEPH     SUNNY     75  60  59 SE13      30.15F
MOSBY          SUNNY     72  61  68 E7        30.16F
WARRENSBURG    SUNNY     73  59  60 E8        30.16S
WHITEMAN AFB   SUNNY     73  51  44 E8        30.16R
CLINTON        SUNNY     75  63  64 E8        30.16S
SEDALIA        SUNNY     75  60  59 SE10      30.18R HAZE
WARSAW         NOT AVBL
MARSHALL       SUNNY     75  63  64 SE7       30.18S
CHILLICOTHE      N/A     74  59  59 S7        30.17S
KIRKSVILLE     SUNNY     73  60  63 E6        30.19R

$$

MOZ041-047>049-056>058-063>065-088>090-097-241600-
...EASTERN AND SOUTHERN MISSOURI...

CITY           SKY/WX    TMP DP  RH WIND       PRES   REMARKS
ST. LOUIS INTL SUNNY     71  55  56 VRB5      30.16R
SPIRIT OF STL  SUNNY     71  51  49 NE10      30.14F
COLUMBIA       SUNNY     72  57  59 E7        30.17S
JEFFERSON CITY SUNNY     71  56  58 SE5       30.16S
HANNIBAL       SUNNY     75  48  38 E7        30.19R
ROLLA          SUNNY     70  54  56 VRB5      30.17R
OSAGE BEACH    SUNNY     73  55  53 SE5       30.17S
SPRINGFIELD    SUNNY     75  59  57 E9        30.15S
BRANSON        MOSUNNY   77  63  61 SE10      30.16S
NEVADA         SUNNY     75  63  64 E8        30.16S
JOPLIN         SUNNY     77  66  68 SE6       30.13R
WEST PLAINS    SUNNY     72  56  57 NE10      30.17S
MALDEN         SUNNY     72  54  53 N8        30.10F

$$

IAZ060-094-KSZ022-034>040-054-083-096-NEZ052-066-093-241600-
...KANSAS...SOUTHEAST NEBRASKA AND IOWA...

CITY           SKY/WX    TMP DP  RH WIND       PRES   REMARKS
TOPEKA         SUNNY     78  61  55 SE13      30.14S
MANHATTAN      SUNNY     79  63  57 SE13      30.11F
EMPORIA        SUNNY     75  64  68 SE13      30.14F
CHANUTE        SUNNY     77  66  68 E10       30.13S
WICHITA        SUNNY     78  66  66 E12       30.11S
OMAHA          PTSUNNY   74  59  59 SE10      30.15R
LINCOLN        SUNNY     78  61  55 SE20      30.12F
FALLS CITY     SUNNY     75  61  61 S15       30.14S
LAMONI         SUNNY     72  59  63 S6        30.17S
DES MOINES     CLOUDY    75  62  64 VRB5      30.16R

$$




USA.gov is the U.S. government's official web portal to all federal, state and local government web resources and services.